Temp
22 22 22 22 21 21 21 21 22 21 20 21 21 21 21 22 22 22 22 22 22 22 23 23 23 23 22 22 22 22 22 21 21 21 21 21 22 22 22 22 22 21 21 21 21 22 22 22 22 22 22 22 22 22 22 22 22 22 22 22 22 22 22 22 22 22 22 22 22 22 23 23 22 22 22 22 22 22 22 22 22 22 22 22 22
23 23 22 22 22 21 20 21 22 21 20 21 21 21 21 21 21 22 22 23 23 23 23 23 23 22 22 22 21 22 22 21 21 21 21 21 22 22 22 22 22 22 21 21 21 21 21 22 21 22 22 22 22 22 22 22 22 22 22 22 22 22 22 22 22 22 22 22 22 22 22 22 22 22 22 22 22 22 22 21 22 22 22 22 22
24 23 22 22 21 21 20 21 21 21 20 20 20 21 21 21 22 22 22 22 23 23 23 23 22 22 22 21 21 22 21 21 21 21 22 22 22 22 22 22 22 22 22 22 22 21 21 21 22 22 22 22 22 22 22 22 22 22 22 22 22 22 22 22 22 22 22 22 22 22 22 22 22 22 22 22 22 22 22 22 22 22 21 22 21
24 23 22 22 22 21 21 21 21 21 20 20 20 20 20 21 22 22 22 22 22 22 22 22 22 22 22 21 21 21 21 21 21 21 22 22 22 22 22 22 23 23 22 22 22 22 21 21 21 21 22 22 21 22 22 22 22 21 22 22 22 22 22 22 22 22 22 22 22 22 22 22 22 22 22 22 22 22 22 22 22 22 22 21 21
25 24 22 22 22 22 21 21 20 20 20 20 20 20 20 21 21 21 21 22 22 22 22 22 22 22 21 21 21 21 21 21 21 21 22 22 22 22 22 22 23 23 22 22 22 22 22 21 21 21 21 21 21 22 22 22 22 22 22 22 22 22 22 23 23 23 23 22 22 22 22 22 22 22 22 22 22 22 22 22 22 22 22 22 22
25 24 23 22 22 22 22 22 21 20 20 20 20 21 21 21 21 21 21 22 22 22 22 21 22 22 21 21 21 21 21 21 22 21 21 22 22 22 22 22 22 23 22 22 21 22 22 21 21 21 21 21 22 22 22 22 22 22 22 22 22 22 23 23 22 22 23 22 23 23 23 23 22 22 22 22 22 22 22 22 22 22 22 22 21
25 25 24 23 22 22 23 22 22 21 21 21 20 21 21 21 22 22 22 22 22 22 21 21 22 21 21 21 21 21 21 21 22 22 21 22 22 21 21 22 22 22 22 22 22 21 21 21 21 21 21 21 22 22 22 22 22 22 22 22 22 23 23 23 23 23 23 23 23 23 24 23 23 22 22 22 22 22 22 22 22 22 21 21 21
25 25 25 24 23 23 23 23 22 22 22 21 21 20 21 21 22 22 22 22 22 21 21 21 22 21 21 21 21 21 21 21 21 21 21 21 22 21 21 22 23 22 22 22 22 21 21 21 20 21 21 21 21 22 22 22 22 22 22 22 22 23 23 23 23 23 23 23 23 24 24 24 23 22 22 22 22 22 22 22 22 22 21 21 21
25 24 25 24 23 23 23 23 22 22 22 22 21 21 22 22 22 22 22 22 22 21 21 21 21 21 21 21 21 21 21 21 21 21 21 21 22 21 21 22 23 22 22 22 22 22 21 21 21 21 21 21 21 22 22 22 22 22 22 22 22 23 23 23 23 23 24 23 23 24 24 24 23 22 22 22 21 21 21 21 21 21 21 21 21
26 25 24 24 23 23 23 23 22 22 22 22 22 22 22 22 21 21 22 22 22 21 21 21 21 21 21 21 21 21 21 21 21 21 21 22 22 21 21 22 22 22 23 23 23 22 21 21 22 21 21 21 22 22 22 22 22 22 22 23 23 23 23 23 24 24 25 24 24 24 24 24 23 22 21 21 21 21 21 21 21 21 21 21 21
26 25 24 23 23 23 23 22 22 22 22 22 21 22 22 21 21 21 22 22 21 21 21 21 20 21 21 21 21 21 21 21 22 22 22 22 22 21 22 22 22 22 23 23 23 22 21 21 21 21 21 22 22 22 22 22 22 22 23 23 23 23 23 23 24 25 25 25 24 24 24 23 22 21 21 21 21 21 21 21 21 21 21 21 21
26 24 23 23 23 23 22 22 22 22 21 21 21 21 21 21 20 21 22 22 22 21 21 21 20 20 21 21 21 21 21 21 21 22 22 22 22 21 22 22 22 22 23 23 22 22 22 21 21 21 21 22 21 22 22 22 22 23 23 23 23 23 24 24 24 25 24 24 24 25 24 23 22 21 21 21 21 21 21 21 21 21 21 21 21
25 24 23 22 23 22 22 22 21 22 21 21 21 21 21 20 21 21 21 22 22 21 20 20 20 20 21 21 21 21 21 21 21 22 22 22 22 21 21 22 22 22 22 22 22 22 22 22 21 21 21 22 22 22 22 22 22 23 23 23 23 24 24 24 25 25 24 24 24 24 24 23 21 21 21 21 21 21 21 21 21 20 20 20 20
25 23 23 22 22 22 22 21 21 21 21 21 21 21 21 20 21 21 21 21 21 21 20 20 20 21 21 21 21 21 21 21 21 20 22 22 21 20 21 22 22 22 22 22 22 22 22 22 22 22 22 22 22 22 22 22 22 22 23 23 23 24 24 25 25 25 25 25 24 24 23 22 21 21 21 21 21 20 20 20 20 20 20 20 20
25 23 23 22 22 22 21 21 21 21 21 21 21 21 21 20 20 20 20 21 21 21 21 20 21 21 21 21 21 21 20 20 20 20 21 22 21 21 22 22 22 22 23 22 22 22 22 22 22 22 22 22 22 22 22 22 22 22 23 23 23 24 24 25 26 25 25 25 25 25 23 22 22 21 21 21 20 20 20 20 20 20 20 20 20
24 23 23 22 22 22 21 21 21 21 21 21 21 21 21 20 20 20 20 20 20 20 21 21 21 21 21 21 21 21 20 20 20 20 21 22 21 22 22 22 22 22 23 22 22 22 22 22 22 22 22 22 22 22 22 22 22 23 23 23 23 24 24 25 26 26 25 25 25 25 23 22 23 22 20 20 20 20 20 20 20 20 20 20 20
24 23 23 22 22 22 22 21 21 21 21 21 21 21 21 21 20 20 20 20 20 21 21 21 21 21 22 21 21 21 21 21 21 21 22 22 22 22 21 21 22 22 22 22 22 22 22 22 22 22 22 22 22 22 22 23 23 23 23 23 24 24 24 25 26 26 25 25 26 25 23 22 23 22 21 20 20 20 20 20 20 20 20 20 20
24 23 23 22 22 22 22 21 21 21 21 21 21 21 20 21 21 20 20 20 20 21 21 21 21 21 22 21 21 22 21 21 22 22 22 22 22 22 22 22 22 22 22 22 22 22 22 22 22 22 23 23 23 23 23 23 23 23 23 24 24 24 25 25 26 27 25 25 26 24 23 23 23 22 21 21 20 20 20 20 20 20 20 20 20
25 23 23 23 22 22 22 22 21 21 21 21 21 21 21 20 20 20 20 21 21 21 21 21 21 21 21 21 22 22 21 21 21 22 22 22 22 22 22 23 23 23 22 22 22 22 22 22 22 23 23 23 23 23 23 24 24 24 24 24 24 25 25 25 26 27 26 26 25 24 24 24 23 22 21 20 20 20 20 20 20 20 20 20 20
26 24 23 23 23 22 23 22 21 21 21 21 21 21 21 20 20 20 21 21 21 21 21 21 21 21 21 21 22 22 22 22 22 22 22 22 22 22 22 23 23 23 23 23 23 23 23 23 23 23 23 23 24 24 24 24 24 25 25 25 25 25 25 26 27 27 26 26 24 24 24 24 23 22 20 20 20 20 20 20 20 20 20 20 20
26 25 24 23 23 23 23 23 22 21 21 21 21 21 21 21 20 20 21 21 21 21 21 21 21 21 21 22 21 21 22 22 22 22 22 22 23 23 23 23 23 23 23 23 24 24 23 23 23 24 24 24 24 24 25 25 25 26 26 25 25 25 26 27 28 28 27 25 24 24 24 23 23 22 21 21 21 20 20 20 20 20 20 20 20
26 26 25 24 24 24 23 23 22 22 21 21 21 21 21 20 20 20 20 21 21 21 21 21 21 22 22 21 21 22 22 22 22 22 22 22 23 23 23 23 23 24 24 24 24 24 24 24 24 24 24 25 25 24 25 26 26 26 26 26 26 27 27 28 28 27 27 25 24 24 24 24 23 22 21 21 21 21 20 20 21 21 21 21 21
27 26 25 25 25 23 23 22 22 22 22 22 21 21 21 20 20 20 20 21 21 21 21 21 22 22 22 22 22 22 22 23 23 23 22 22 23 23 24 24 24 24 24 25 24 24 24 24 25 25 25 25 25 25 26 26 26 27 27 27 27 28 28 28 28 27 27 25 24 25 24 24 23 22 22 21 21 21 20 21 21 21 21 21 21
27 26 26 25 25 24 23 22 22 22 21 22 22 21 21 21 21 21 21 21 21 21 22 22 22 22 22 22 23 23 23 23 23 23 23 23 23 24 24 24 25 25 25 24 25 25 25 25 25 25 25 25 26 27 28 28 28 28 27 28 28 28 28 28 28 28 27 25 24 25 24 24 23 23 22 21 21 21 21 21 21 21 21 21 21
26 26 26 25 25 24 23 22 22 22 22 22 22 22 22 21 22 22 22 22 22 22 23 22 23 23 23 24 24 24 24 23 24 24 24 24 23 24 24 24 24 24 24 24 25 25 25 25 26 26 26 27 28 29 29 29 29 28 28 28 28 28 28 28 28 27 26 25 25 24 24 24 23 23 23 22 22 21 21 21 21 21 21 21 21
26 26 26 25 25 25 24 23 22 22 22 22 23 22 23 23 23 23 23 23 23 23 23 23 23 23 24 25 25 25 25 24 25 25 25 24 24 24 24 24 24 25 25 25 26 26 26 26 27 27 28 29 29 28 29 29 29 29 28 28 28 28 28 28 27 27 26 25 25 24 24 24 23 23 23 23 23 22 22 22 22 22 22 22 22
26 26 26 25 25 25 24 23 23 23 23 23 24 24 24 24 24 24 24 24 24 24 24 24 24 25 26 26 26 26 26 25 25 25 25 25 24 24 24 24 25 26 26 26 27 27 27 28 28 28 28 29 29 29 29 29 29 29 28 28 28 28 28 28 27 27 26 25 24 24 24 24 24 24 24 24 23 23 23 23 23 23 23 23 23
26 26 26 25 25 25 25 24 24 24 24 24 25 25 24 24 24 24 25 25 25 25 25 25 24 25 26 27 27 27 27 26 25 25 25 25 25 25 24 26 26 27 27 27 27 27 28 28 28 28 28 29 30 29 29 29 29 29 28 28 28 28 28 28 28 27 27 25 25 25 24 24 24 24 24 24 24 24 24 24 24 24 24 24 24
27 26 26 26 25 25 25 25 25 25 25 25 25 25 25 24 24 25 25 25 26 26 25 25 25 25 26 27 27 27 27 26 26 25 26 25 25 25 26 27 27 27 28 27 27 28 28 28 28 28 29 29 30 29 30 30 30 29 29 28 28 28 28 28 28 28 27 26 25 25 25 25 24 24 24 24 24 24 24 24 24 24 25 25 25
27 27 26 26 26 25 26 25 25 25 25 25 25 25 25 25 25 25 25 25 26 26 26 26 26 26 26 26 26 27 27 26 26 26 26 26 26 26 27 27 27 27 28 28 28 28 28 28 28 29 29 29 30 30 30 30 30 30 29 29 29 28 28 28 28 28 28 27 26 25 25 25 25 25 24 24 25 25 25 25 25 25 25 25 25
27 27 27 26 26 26 26 25 25 25 25 25 25 25 25 25 25 25 25 26 26 26 27 27 26 26 25 25 25 26 26 26 26 26 26 26 26 26 27 27 27 28 28 28 28 28 28 28 28 29 29 29 30 30 30 30 30 30 30 29 29 29 28 28 28 28 28 28 27 26 26 26 25 25 25 25 25 25 25 25 25 25 25 25 25
28 27 27 26 26 26 26 25 25 25 25 25 25 25 25 25 25 26 26 26 26 27 27 27 26 25 24 24 25 25 25 25 25 26 26 27 27 27 27 27 27 27 27 27 27 28 28 28 28 28 29 30 30 30 30 31 30 31 30 30 29 29 29 29 29 29 28 27 28 27 26 26 26 26 26 26 26 26 26 26 26 26 26 26 25
28 27 27 27 27 27 26 26 25 25 25 26 26 26 26 26 26 26 26 26 27 27 27 26 26 25 24 24 24 24 25 25 25 25 26 26 27 27 27 27 27 27 27 27 27 28 28 28 29 29 29 30 30 30 31 31 31 31 31 30 29 29 29 30 29 29 29 28 28 28 27 27 27 27 27 27 27 27 27 26 26 26 26 26 26
28 27 27 27 27 27 27 26 26 26 26 26 26 26 26 26 26 26 26 27 27 27 27 26 26 25 25 24 24 24 24 24 25 25 25 26 27 27 27 27 27 27 27 27 27 28 28 28 28 29 29 30 30 31 31 31 31 31 31 30 30 29 30 30 29 30 30 29 29 28 28 27 27 27 27 27 27 27 27 27 27 26 26 26 26
28 27 27 27 27 27 27 27 26 26 26 26 26 26 27 27 27 26 26 27 27 27 27 26 26 26 25 24 24 24 24 24 24 24 26 27 27 27 27 27 27 27 27 27 27 28 28 28 28 28 29 30 30 31 31 31 31 30 31 30 30 30 30 30 30 30 30 29 29 29 28 28 28 28 28 28 28 27 27 27 27 27 27 27 27
28 27 27 27 27 27 27 27 26 26 26 26 26 26 27 27 27 27 27 27 28 28 27 27 27 26 26 25 24 24 24 24 24 24 26 27 28 27 27 27 27 27 27 27 28 28 28 28 28 28 29 30 30 31 31 31 31 30 30 30 30 30 30 30 30 30 30 30 29 29 29 28 28 28 28 28 28 28 27 27 27 27 27 27 27
28 27 27 27 27 27 27 27 27 26 26 26 26 26 26 27 27 27 27 27 28 28 27 27 27 26 26 25 24 24 24 24 24 24 25 27 27 27 27 27 27 27 27 27 28 28 28 28 28 28 28 28 29 31 31 31 31 31 31 30 30 30 30 30 30 30 30 30 29 30 30 29 29 28 28 28 28 28 28 28 27 28 28 27 28
28 27 27 27 27 27 28 27 27 26 26 26 26 26 26 26 27 27 27 27 27 27 27 27 26 25 25 25 24 25 24 24 24 25 25 26 27 27 27 27 27 27 27 28 28 28 28 28 28 28 28 28 29 31 31 31 32 32 31 30 30 30 30 30 30 30 30 30 30 30 30 30 29 29 29 29 29 29 28 28 28 28 28 28 28
28 27 27 27 27 27 27 27 27 27 26 25 25 26 26 26 27 27 27 27 28 27 27 27 27 25 25 25 25 25 25 24 24 25 25 26 26 26 26 26 27 27 27 28 28 27 27 28 28 28 29 29 29 31 31 31 32 31 31 31 30 30 30 30 30 30 30 30 30 30 30 30 30 30 29 29 29 29 28 28 28 28 28 28 28
28 28 27 27 27 27 27 26 27 27 26 25 26 26 26 26 27 27 27 27 27 27 27 27 27 26 25 25 25 25 25 24 24 24 25 25 26 26 26 26 27 27 27 27 27 27 27 28 28 28 28 29 29 31 30 31 31 31 31 31 30 30 30 30 30 30 30 31 30 30 30 30 30 30 30 29 30 30 29 28 28 27 27 28 28
28 27 27 27 27 26 26 26 26 26 26 26 26 27 27 27 27 27 27 27 27 27 27 27 27 26 26 25 25 25 24 24 24 24 25 25 25 25 25 26 26 26 26 27 27 27 27 28 28 28 29 29 29 30 31 31 31 31 31 31 31 31 31 31 30 30 30 31 31 31 31 31 30 30 30 30 29 29 29 28 28 27 27 28 27
28 27 27 27 27 27 26 26 26 26 26 26 26 27 27 27 27 27 28 27 27 27 27 27 27 26 25 25 25 25 24 24 24 24 25 25 25 25 25 25 26 26 26 26 26 26 27 28 28 28 28 28 28 30 31 29 29 30 30 30 31 31 31 31 31 31 31 31 31 31 32 31 29 29 30 30 29 28 28 28 28 28 28 28 27
28 27 27 27 27 27 26 26 26 26 26 26 26 26 27 27 27 27 28 28 28 28 28 27 27 27 25 25 25 25 25 25 25 25 25 25 25 25 26 25 26 26 26 26 27 27 27 27 28 28 28 27 27 29 30 29 29 30 29 28 29 29 29 30 30 31 31 31 31 31 31 31 29 28 30 31 30 29 28 29 29 28 28 28 27
28 28 27 27 27 27 26 26 26 26 26 26 26 26 26 26 27 27 27 27 27 27 27 27 27 27 26 26 25 25 25 25 25 26 25 25 25 25 26 26 25 26 26 26 26 27 27 27 28 28 27 28 28 28 28 29 30 29 28 28 29 27 27 28 28 29 30 30 29 28 29 31 29 28 30 31 30 29 29 29 29 28 28 27 27
28 28 28 28 28 27 26 26 26 26 26 26 26 26 26 26 26 26 26 26 27 27 27 27 27 27 26 26 26 25 25 26 26 26 25 25 25 25 25 25 26 26 26 26 26 27 27 27 27 27 27 28 28 28 28 29 30 29 29 29 29 28 27 28 29 29 30 29 28 29 29 30 30 29 30 30 30 29 29 29 29 28 28 27 27
29 29 29 28 28 27 26 26 26 26 26 26 25 25 25 25 26 26 26 26 27 27 27 27 27 27 26 26 27 26 26 26 26 26 25 25 25 25 25 25 26 26 26 27 27 27 27 27 27 27 27 27 28 28 28 28 29 30 30 30 29 29 29 29 29 28 29 29 29 30 30 29 30 30 28 29 29 28 27 28 28 28 28 27 27
29 29 29 29 28 27 26 26 26 26 26 25 25 25 25 26 26 27 27 27 27 27 27 28 28 27 27 26 27 26 26 26 26 25 25 25 25 24 25 25 26 26 26 26 27 27 28 27 27 27 27 27 27 28 28 28 29 29 30 31 31 30 30 30 30 29 28 28 29 30 31 30 31 30 28 29 30 27 26 27 27 28 28 27 27
30 30 29 29 28 27 27 26 26 26 26 26 25 25 25 26 26 27 27 27 27 27 27 27 27 27 27 27 27 27 26 26 26 25 25 25 25 25 25 25 26 26 26 27 27 28 27 27 27 27 27 27 27 27 28 28 29 29 29 30 30 30 31 31 31 30 30 29 30 31 31 30 30 30 30 31 31 30 29 28 28 28 28 27 27
31 30 30 29 28 27 27 26 26 26 26 26 25 25 25 26 26 26 27 27 27 27 27 27 27 27 27 27 27 27 26 26 26 25 25 25 25 25 25 25 26 26 26 27 27 27 27 26 27 26 27 27 27 27 27 28 29 29 29 29 29 30 31 31 31 31 31 30 30 31 30 29 30 32 32 31 31 31 30 29 28 29 28 27 27
31 30 30 29 28 27 27 26 26 26 26 26 25 25 25 25 26 26 26 26 27 27 27 27 26 26 26 26 26 26 26 26 26 26 25 25 25 25 25 26 26 26 26 27 27 27 27 26 27 27 26 27 27 27 27 28 28 29 29 29 29 29 30 30 30 31 31 31 30 31 31 31 31 32 31 30 30 30 30 30 28 28 27 26 26
31 31 30 30 29 28 27 26 26 26 26 25 25 25 25 25 26 26 26 26 26 26 26 26 26 26 26 26 26 26 26 27 27 26 26 26 26 25 26 26 26 26 26 27 27 27 27 27 27 27 26 26 27 27 27 28 28 28 29 29 29 30 29 30 30 29 30 31 30 31 32 32 32 32 30 29 30 29 29 29 27 27 27 27 27
Height
806 806 808 808 810 809 811 810 810 811 812 813 813 814 814 815 816 816 817 817 817 817 816 817 817 818 821 821 822 824 825 824 824 824 824 824 824 825 824 824 825 826 826 825 825 824 825 825 825 825 824 823 823 822 823 824 824 825 826 827 827 827 828 829 830 830 831 831 830 828 825 825 826 828 829 831 831 832 832 832 833 833 833 833 834
805 806 807 808 809 809 811 810 811 812 813 814 814 815 815 816 816 817 817 817 817 817 817 818 819 819 822 823 824 826 826 825 826 826 825 825 825 826 826 825 826 827 827 828 829 827 827 826 826 826 826 825 825 825 825 826 826 826 827 827 828 829 829 830 831 831 832 832 832 831 829 828 828 828 829 831 832 833 833 834 834 834 834 835 835
804 806 807 808 809 809 811 811 812 812 814 815 815 815 815 816 816 817 817 817 817 818 819 820 821 821 823 825 827 828 827 827 827 827 826 826 826 826 826 826 826 827 828 828 829 830 830 828 828 828 828 828 827 827 827 827 827 828 828 828 829 830 830 831 832 833 833 833 833 833 833 832 831 830 830 831 832 833 834 834 835 835 836 836 836
804 806 807 807 809 810 811 811 813 813 814 815 816 816 816 817 817 818 817 818 818 820 821 821 822 822 824 826 828 829 828 828 828 828 827 827 827 826 826 826 826 827 829 830 828 830 833 832 831 831 830 830 830 829 829 829 829 829 829 829 830 831 832 832 833 834 834 834 835 835 835 835 834 834 833 833 833 834 834 835 835 836 837 837 838
804 806 807 808 809 810 811 812 813 814 815 815 816 817 817 818 819 819 818 820 820 822 823 823 823 823 826 827 829 829 829 829 829 829 828 828 827 827 827 827 828 827 829 831 832 830 832 835 834 833 833 832 831 831 831 830 830 830 830 831 831 832 833 834 834 835 835 836 836 836 837 836 836 836 836 836 836 835 835 835 836 837 838 838 839
804 806 807 808 810 811 812 813 814 815 815 816 816 817 818 819 819 820 820 821 822 823 825 825 825 826 828 828 830 830 829 830 830 830 829 829 828 828 828 828 829 829 829 831 834 834 833 836 837 836 835 834 833 832 832 832 832 832 832 832 832 833 834 835 835 836 836 836 837 836 837 838 837 838 838 838 838 837 837 837 837 838 838 839 840
804 806 808 808 811 811 813 814 814 815 816 816 817 818 818 820 820 821 821 822 823 825 827 827 827 827 829 830 832 831 830 830 830 831 830 830 829 829 829 829 830 830 831 831 834 837 836 837 838 838 838 836 834 834 834 834 833 833 834 834 834 834 835 836 836 837 837 837 837 838 838 838 839 839 840 840 839 839 839 839 839 839 840 840 841
805 807 808 809 811 812 813 814 815 816 816 817 817 818 819 821 821 821 822 823 824 827 829 829 827 828 830 833 833 831 830 831 831 831 831 831 830 831 830 831 831 831 832 832 834 838 840 839 839 840 840 838 836 835 835 835 835 835 835 835 835 835 836 836 837 837 837 838 838 839 839 839 840 840 841 841 841 841 841 841 841 841 841 842 843
805 807 808 810 811 812 814 814 815 816 817 818 818 819 819 821 822 822 823 824 826 828 829 829 830 830 832 834 833 832 832 832 832 832 832 831 831 832 832 832 832 832 832 833 834 837 840 839 839 841 841 839 838 837 837 837 836 836 836 836 837 837 837 837 837 838 839 839 840 840 840 840 841 841 841 842 842 842 842 843 843 843 843 843 844
806 807 809 810 811 812 814 815 816 817 818 818 819 819 820 822 823 823 823 825 827 828 828 830 832 832 834 834 834 833 833 833 833 833 832 832 833 833 833 833 833 833 833 833 834 836 840 839 838 842 842 841 840 839 838 838 838 837 837 837 837 838 838 838 838 839 840 840 841 841 841 841 841 842 842 842 843 843 843 844 844 844 844 845 845
806 808 809 810 812 813 814 816 816 817 818 819 820 821 822 823 825 825 825 825 828 829 829 832 833 835 835 834 835 835 834 834 834 833 833 833 834 834 834 834 834 834 834 833 834 836 840 839 839 843 843 842 842 841 840 840 839 839 838 838 838 838 838 838 839 840 841 841 842 842 842 842 842 843 843 843 843 844 844 844 845 845 846 846 846
807 808 809 811 812 813 815 816 817 818 819 820 820 821 824 825 826 826 825 826 827 830 831 833 835 836 835 835 836 836 836 835 835 834 834 834 835 836 835 836 836 836 836 835 835 836 840 841 841 844 844 844 843 842 842 841 841 840 839 839 838 838 839 839 840 841 842 842 843 842 843 843 843 843 843 844 844 844 845 845 846 846 847 847 847
807 809 811 813 813 814 816 817 818 818 820 821 821 822 824 825 827 827 826 826 827 830 832 835 835 835 835 835 836 836 836 836 835 835 834 835 836 837 837 837 837 837 837 837 838 838 841 842 842 844 845 845 844 844 843 842 842 842 841 840 840 839 839 839 841 842 842 843 843 844 844 844 844 844 844 844 844 845 845 846 847 847 848 848 848
808 810 812 814 814 816 817 819 819 820 821 821 821 822 825 826 827 828 829 829 829 830 832 835 834 835 835 835 836 836 836 836 836 835 835 836 837 838 838 839 839 838 838 839 840 841 843 843 844 846 846 846 845 845 844 844 843 843 842 842 841 840 840 840 842 843 843 844 844 844 844 844 844 844 844 844 844 845 845 846 847 848 848 848 848
810 811 813 815 815 818 819 820 820 821 822 822 822 823 825 826 827 829 831 831 831 832 833 834 835 835 836 836 837 837 837 836 837 836 836 836 837 839 839 840 840 840 839 839 841 843 844 845 846 847 847 847 846 846 845 845 844 844 843 843 842 841 840 841 843 844 844 844 844 845 844 844 844 844 844 844 845 845 846 847 847 848 848 848 848
812 813 814 816 817 819 820 821 821 821 822 823 823 823 825 826 828 830 831 833 833 834 833 834 835 836 836 837 838 838 838 837 837 837 836 837 838 839 840 841 842 842 840 840 841 843 845 846 848 848 848 848 847 847 846 846 845 845 844 843 843 842 842 842 843 844 845 845 845 845 844 844 844 844 845 844 845 845 846 847 848 848 848 848 848
813 814 815 816 818 819 820 821 822 822 823 823 823 824 825 826 828 829 831 833 834 834 834 835 836 836 836 837 839 840 839 839 838 838 837 838 839 840 840 842 843 843 843 843 843 844 845 847 848 849 849 849 848 847 847 847 846 846 845 844 844 844 843 842 844 845 845 845 845 845 844 844 844 844 844 844 845 845 846 847 848 848 848 848 847
813 815 816 818 818 820 821 822 823 824 823 824 824 825 826 827 828 829 831 832 833 834 835 836 837 837 838 839 841 841 841 840 840 839 838 839 840 840 841 842 843 843 844 845 846 846 847 848 849 849 849 849 848 847 847 847 846 846 845 845 844 844 844 843 844 845 846 846 846 845 844 844 844 844 844 844 845 845 846 847 848 848 847 847 847
814 815 817 820 821 821 821 822 823 824 825 824 824 825 826 827 828 829 830 831 832 834 836 837 838 839 840 842 843 842 842 842 841 841 840 840 840 841 841 841 842 843 845 846 847 847 848 849 849 849 849 849 848 847 847 847 847 846 845 845 844 844 844 843 844 845 846 846 846 845 845 844 844 843 843 843 844 845 846 847 847 848 848 847 847
814 815 817 819 820 822 821 822 824 824 826 825 824 825 827 828 829 830 831 833 833 834 836 838 839 841 842 843 843 842 842 842 842 842 841 841 841 841 841 842 842 843 845 846 847 847 848 849 849 849 849 848 847 847 847 847 847 846 845 845 844 844 843 843 844 845 845 847 846 845 845 844 843 843 843 843 844 845 846 847 847 848 848 847 847
814 815 816 818 819 821 821 823 824 825 825 825 825 826 827 829 831 832 833 834 835 836 837 839 841 842 843 843 843 843 843 843 843 843 842 842 842 842 842 842 843 843 844 845 846 847 848 849 849 849 848 847 847 847 847 847 847 846 846 844 844 844 844 844 844 845 846 847 846 845 845 844 843 843 842 843 843 844 845 846 847 847 847 847 847
813 815 817 818 819 820 821 823 824 825 824 824 826 827 828 830 831 833 834 835 836 838 839 840 841 841 842 843 843 843 843 843 844 844 844 843 844 843 843 844 843 844 844 845 846 847 848 848 849 848 848 848 847 846 846 846 847 846 845 844 844 845 845 845 845 845 846 846 846 845 844 844 843 842 842 842 843 844 845 846 847 847 847 846 846
812 814 817 818 819 820 821 823 825 826 824 823 826 827 829 831 832 833 834 836 837 838 839 840 841 841 842 842 843 843 843 844 844 844 845 845 845 844 844 844 844 845 845 846 847 848 848 849 849 848 848 847 846 846 846 846 846 846 845 844 845 846 845 845 845 846 846 846 845 845 844 844 843 843 842 842 843 843 844 845 846 846 846 846 846
812 813 816 818 819 820 822 823 825 827 826 825 827 829 830 832 832 833 834 835 836 837 838 839 840 840 841 842 843 843 844 844 845 845 845 846 846 845 845 845 845 846 847 847 848 848 849 849 848 848 847 847 846 846 846 846 845 845 844 845 846 846 845 845 845 845 846 846 845 845 845 844 843 843 843 842 842 843 844 844 845 845 845 845 845
812 814 816 818 820 821 822 824 825 826 827 827 828 830 831 833 834 833 834 835 836 837 838 839 840 841 841 842 843 844 844 845 845 846 847 847 847 847 846 846 847 848 848 848 849 850 849 849 848 847 847 846 846 846 846 846 845 845 845 846 846 846 846 846 846 846 846 846 846 846 845 844 844 844 843 843 842 843 843 844 844 844 845 845 845
813 815 816 818 820 821 822 824 825 826 827 828 828 830 831 833 833 834 834 835 837 838 839 840 840 841 841 842 843 844 845 845 846 846 847 847 847 848 848 848 849 850 849 849 850 850 849 849 848 847 846 846 846 846 846 845 845 846 847 847 847 846 846 846 846 847 847 847 847 847 846 846 845 845 844 844 843 843 843 844 844 844 844 844 844
813 815 816 818 819 820 822 823 825 826 827 828 829 829 831 832 833 834 835 836 837 838 839 840 840 841 841 842 843 843 844 845 846 846 847 847 848 849 850 849 850 850 849 849 850 849 849 848 848 848 846 845 846 846 846 846 845 846 847 847 847 847 847 847 848 848 848 849 848 848 848 847 847 846 845 845 844 844 844 844 844 844 844 844 843
814 815 816 818 819 820 822 823 824 826 827 828 829 830 831 832 833 834 835 836 837 838 839 840 841 841 842 842 842 843 844 845 846 846 847 847 848 849 850 849 849 849 849 850 849 849 849 848 848 848 846 846 845 845 846 846 846 847 848 848 848 848 848 849 849 849 850 850 850 850 850 849 849 848 847 846 845 845 845 845 845 844 844 844 843
814 815 816 817 819 820 821 823 824 826 827 828 829 830 831 832 833 834 835 836 837 838 839 840 841 842 842 842 843 843 844 845 846 847 847 848 848 849 849 849 849 849 849 849 849 849 849 848 848 847 847 846 845 846 845 845 846 847 848 848 848 849 850 850 851 851 852 852 853 852 852 852 851 850 849 848 847 847 846 846 845 845 845 844 843
814 815 817 818 819 821 822 823 825 826 827 828 829 830 831 832 833 835 835 836 837 838 839 840 841 842 843 843 843 844 844 846 847 847 848 848 848 849 848 849 849 849 849 849 849 849 849 848 848 847 847 846 846 846 845 845 846 847 847 848 849 850 851 851 853 854 854 855 855 855 855 854 854 853 851 850 849 848 848 847 846 846 845 845 844
814 816 817 819 820 821 822 824 826 827 828 829 830 831 832 833 834 835 836 837 838 839 839 840 841 842 843 844 844 845 846 846 847 848 848 848 848 849 849 849 849 849 849 849 850 849 849 848 848 848 847 846 846 846 845 845 846 847 847 848 849 850 851 852 853 854 855 856 857 857 856 856 855 854 853 852 851 850 849 848 848 847 847 846 845
814 817 818 819 820 821 823 825 826 828 829 830 831 832 833 833 834 835 836 837 838 838 839 840 841 843 844 845 845 846 847 847 848 849 849 849 848 849 849 850 850 850 850 850 850 850 849 849 848 848 847 846 846 846 845 845 846 846 847 848 849 850 851 852 852 853 854 855 857 857 856 856 855 854 853 852 851 851 850 849 849 848 848 847 846
814 817 818 820 821 822 824 825 827 828 829 830 831 833 833 834 835 836 837 838 838 839 840 841 842 844 845 845 847 847 848 849 849 849 849 849 849 849 850 851 851 851 851 851 850 850 849 848 848 848 848 847 846 845 845 845 846 846 846 848 849 851 852 853 853 853 853 854 855 856 855 854 853 853 853 852 851 850 850 850 849 849 848 847 846
815 817 819 820 821 822 824 826 827 829 830 831 832 833 834 835 836 837 838 838 839 840 841 842 843 845 846 847 848 848 849 849 849 849 849 850 850 850 851 851 852 851 851 851 850 850 849 848 848 848 848 847 845 844 844 845 846 846 847 848 849 851 852 852 853 853 853 854 856 855 853 852 852 853 852 851 851 850 849 849 849 849 848 847 847
816 817 819 820 822 823 824 826 828 829 831 832 833 834 835 835 836 838 838 839 839 841 842 843 844 845 847 848 848 849 849 850 850 849 849 849 849 850 851 852 852 852 852 851 850 850 849 849 849 848 847 846 845 845 845 845 846 847 848 848 850 851 851 852 852 851 852 854 855 854 851 851 852 853 852 851 851 850 849 848 848 849 848 847 846
816 818 820 821 822 823 825 826 828 830 831 833 834 835 835 836 837 838 839 839 840 841 842 843 844 846 847 848 849 849 850 850 850 850 850 849 849 851 852 852 852 852 852 851 850 850 850 849 849 848 847 846 845 844 845 845 846 847 848 849 851 851 850 850 850 851 852 853 853 853 851 851 851 852 851 852 852 851 849 848 848 848 848 847 846
816 819 820 821 823 824 825 827 828 830 832 833 834 835 836 837 838 839 839 840 840 841 842 843 845 846 847 848 849 849 850 850 851 850 850 849 850 851 852 853 853 852 852 852 851 850 850 850 850 849 848 848 847 845 845 845 845 845 847 849 850 850 849 849 850 851 852 852 851 851 850 850 851 850 850 851 852 851 850 848 848 848 848 847 845
816 819 821 822 823 824 825 827 829 831 832 834 835 836 837 838 838 839 840 840 840 841 842 843 845 846 847 848 849 850 850 851 851 851 850 850 851 852 852 853 853 853 853 852 851 851 850 850 850 850 849 849 848 846 844 844 844 844 845 847 848 848 849 849 850 850 851 851 850 850 850 850 850 850 850 851 850 850 849 847 847 846 846 845 844
816 819 821 822 823 825 826 828 830 831 833 835 836 837 837 838 839 839 840 840 841 842 842 843 845 846 847 848 849 850 851 851 852 852 852 852 852 853 853 853 853 853 853 852 852 852 852 851 851 851 850 849 848 846 846 845 844 844 845 846 848 848 848 849 848 848 849 849 850 850 851 850 850 850 851 851 849 848 848 847 846 845 844 843 842
816 819 821 823 824 826 827 829 830 831 833 835 836 837 838 838 839 840 841 841 841 842 843 844 845 846 847 849 849 850 851 852 852 853 853 853 853 853 854 854 854 854 853 852 852 852 852 852 851 851 850 850 849 847 847 846 845 846 846 846 848 849 849 848 847 847 848 848 849 849 849 849 849 850 850 849 847 847 846 846 845 844 843 842 842
816 819 821 823 824 826 827 829 830 832 833 835 836 836 838 839 839 840 841 841 842 843 843 844 845 846 848 849 850 850 851 852 852 853 853 853 853 854 854 854 854 854 854 853 853 853 853 852 852 852 851 850 849 848 848 847 847 847 848 847 847 848 848 847 847 848 847 847 847 847 847 847 848 848 848 847 846 845 844 844 844 843 843 843 841
816 819 820 822 824 826 827 829 830 832 833 834 836 836 837 839 839 840 840 841 842 843 844 844 845 846 848 849 850 851 851 852 853 853 853 854 854 854 854 854 854 854 854 854 854 854 853 853 853 852 852 852 850 849 849 850 850 849 848 848 847 847 847 846 847 847 847 847 845 845 845 845 847 847 846 845 844 844 844 843 842 843 843 842 841
815 818 820 822 824 825 827 829 830 831 833 834 835 837 838 838 839 840 841 841 842 843 844 844 845 847 848 849 850 851 851 852 853 853 854 854 854 854 854 854 855 855 855 854 854 854 854 853 853 853 853 853 852 850 850 851 851 849 849 852 850 850 851 848 848 847 846 846 845 845 845 844 845 846 845 843 842 842 843 843 843 843 843 842 840
814 816 819 821 823 825 827 828 830 831 833 835 836 837 838 839 840 841 841 842 842 843 844 845 846 847 848 849 850 851 851 852 853 853 853 854 854 854 854 855 855 855 855 855 855 855 855 854 853 853 853 854 853 851 851 850 850 849 851 853 851 854 858 853 849 848 846 847 847 847 846 843 844 846 844 841 841 841 842 842 842 843 842 841 840
813 814 817 819 821 824 827 828 830 832 833 834 836 837 838 840 840 841 842 842 843 844 845 846 846 847 848 848 850 851 851 852 852 853 853 854 854 854 854 855 855 855 855 855 855 854 854 854 854 854 853 854 854 853 852 850 850 849 850 851 852 856 858 851 848 848 845 845 847 845 843 842 843 844 843 841 841 841 841 841 842 841 840 839 839
811 813 815 817 820 823 826 828 829 831 833 834 836 837 838 840 840 841 842 843 843 844 844 845 846 846 847 848 849 850 851 851 852 853 853 854 854 854 854 855 855 855 855 854 854 853 853 854 854 854 854 854 855 854 852 851 850 849 848 848 850 851 850 847 849 850 846 843 843 843 842 841 840 841 842 840 840 842 842 840 840 840 838 838 838
808 811 814 815 819 822 824 827 829 831 832 834 836 837 838 839 840 841 841 842 842 843 844 844 845 845 846 848 849 850 850 851 851 852 853 853 854 854 854 854 854 854 855 854 854 853 853 853 854 854 854 855 855 854 853 852 850 848 847 846 845 845 845 845 846 849 849 845 842 841 840 839 838 839 839 837 836 840 841 840 839 838 837 837 837
805 809 812 814 818 821 823 826 828 830 831 833 835 836 838 839 840 840 840 842 842 843 844 844 845 845 846 847 848 849 850 850 851 852 852 853 853 854 854 854 854 854 855 854 853 853 853 854 854 854 854 854 854 854 853 851 849 847 847 847 845 844 844 843 842 844 846 845 842 839 838 839 838 836 835 834 834 836 837 838 838 836 836 835 836
803 806 810 813 816 819 822 825 827 829 830 832 834 835 837 838 839 840 840 841 842 843 844 844 845 846 846 847 847 848 850 850 851 851 852 853 853 853 854 854 854 854 854 854 853 853 854 855 854 854 854 853 853 853 852 851 848 847 847 847 846 845 843 842 842 840 840 842 842 838 838 839 836 833 833 834 834 834 835 836 836 835 835 835 835
801 804 808 811 815 818 821 824 826 828 830 831 833 835 836 838 839 840 840 841 842 843 844 844 845 846 846 847 848 848 849 849 850 851 852 852 853 853 853 853 854 854 854 853 853 854 854 854 854 853 853 853 853 852 852 851 849 848 847 847 847 846 844 842 842 841 838 840 840 837 836 835 833 831 833 835 835 835 835 835 836 836 835 835 835
800 803 806 809 813 816 819 822 824 826 829 830 832 834 835 837 838 839 840 841 842 842 843 844 845 846 846 846 847 848 848 849 849 850 851 851 852 853 853 853 853 853 854 853 853 853 853 853 853 853 853 853 852 852 851 850 849 849 847 846 846 844 844 843 842 843 841 839 839 838 835 833 832 832 833 835 835 835 835 835 837 837 835 835 834
Wind_Speed
11 12 12 10 11 10 11 10 11 13 12 13 14 15 15 15 14 13 13 12 12 12 12 12 13 12 9 10 10 8 8 9 10 12 13 13 14 15 15 16 14 13 13 13 14 15 15 15 15 15 15 13 13 13 14 15 16 17 17 18 18 19 19 19 18 18 19 20 19 17 16 15 16 16 16 16 15 16 17 15 14 15 14 14 13
12 13 12 11 11 10 12 11 12 13 12 13 13 14 14 13 13 13 13 12 12 12 12 13 13 12 9 10 9 7 9 10 11 12 13 13 14 14 15 17 15 15 14 13 13 13 14 15 15 15 15 14 14 14 15 15 15 16 17 17 18 18 18 18 17 18 19 20 20 19 17 15 15 15 14 14 14 15 16 15 13 14 14 13 13
13 13 12 11 12 12 12 12 13 13 13 13 13 13 13 12 12 13 13 12 12 12 13 13 13 12 11 11 9 8 9 10 12 13 13 13 15 15 15 17 16 16 15 14 14 13 13 14 15 15 15 14 14 14 15 15 15 15 16 17 17 17 18 17 17 18 19 19 20 20 18 17 15 15 14 13 14 15 15 15 14 15 15 13 13
14 13 11 11 11 12 12 13 13 13 13 13 13 13 13 12 12 13 13 12 12 12 12 13 13 13 12 11 10 9 10 12 14 13 13 14 15 15 16 16 16 16 15 15 15 14 12 12 14 14 14 14 14 14 14 15 15 15 15 16 16 17 17 18 18 19 19 19 18 18 18 17 16 15 14 14 14 14 14 14 14 14 14 14 14
14 13 12 12 11 11 13 13 13 13 13 13 13 13 13 13 12 12 12 12 12 12 13 14 13 13 12 11 10 9 11 13 14 13 14 15 15 16 15 16 16 16 16 16 15 15 13 11 12 14 14 13 14 14 14 15 15 15 15 16 16 16 17 17 18 18 17 16 14 14 16 16 16 15 14 14 13 13 13 13 13 13 13 13 13
13 12 12 12 10 11 13 13 13 13 13 13 13 13 13 13 12 11 12 13 12 12 13 14 12 11 11 11 9 9 12 13 14 13 15 16 15 15 15 16 16 16 16 17 14 14 15 12 12 13 12 13 14 15 15 16 15 15 15 15 16 16 17 17 16 14 13 13 13 13 14 15 15 15 13 13 12 12 11 11 11 12 12 12 12
12 11 11 12 11 10 11 12 12 13 13 14 14 13 13 13 13 12 12 13 12 12 13 13 11 10 10 10 9 10 12 14 14 14 14 16 15 15 15 15 16 16 16 17 16 13 13 12 12 13 12 13 15 15 16 16 15 15 15 15 15 15 15 14 13 12 10 11 11 12 13 14 14 14 13 12 12 11 10 10 10 11 11 11 10
12 11 10 12 12 11 10 10 12 12 13 13 13 13 13 12 12 12 12 12 12 11 13 13 12 11 9 9 10 11 12 14 14 14 14 14 15 14 14 15 16 16 17 17 17 14 12 12 12 12 12 13 15 15 15 15 15 15 14 14 14 14 12 12 13 12 11 11 10 11 12 13 14 13 13 12 11 10 9 9 10 11 10 10 10
13 12 10 11 11 10 10 10 11 11 11 12 12 11 12 11 11 10 10 10 11 11 13 14 12 12 10 9 11 12 12 13 14 14 14 13 14 14 13 15 15 16 17 17 17 15 13 14 14 11 11 13 14 14 14 14 13 13 13 13 13 12 11 12 13 10 9 11 10 11 12 12 14 13 12 11 10 9 9 8 9 11 10 10 9
13 12 11 11 10 9 9 9 10 11 10 12 12 11 11 11 12 10 10 10 12 13 13 13 12 11 10 10 11 12 12 12 13 14 13 13 14 13 13 14 15 16 17 17 16 16 13 15 16 11 11 13 13 14 13 13 12 12 12 12 12 11 10 10 10 8 8 10 11 12 12 13 13 13 12 10 9 9 9 8 9 10 9 9 8
11 11 12 11 10 8 9 9 9 10 10 11 12 11 11 12 12 11 10 10 12 14 12 12 12 12 10 10 12 12 11 11 12 14 14 13 14 13 14 15 15 15 17 17 15 15 13 14 15 11 11 13 13 13 13 13 12 11 10 11 11 12 11 9 8 7 8 10 11 12 13 14 14 13 11 10 9 9 9 8 9 9 9 9 8
11 12 13 11 9 9 9 9 9 9 10 11 10 11 12 12 13 12 10 10 11 13 11 10 11 12 13 12 12 11 11 11 11 13 14 13 14 15 15 16 15 14 16 17 15 13 12 12 13 11 11 13 13 12 13 14 13 12 11 11 12 12 11 10 8 7 8 9 10 11 12 14 13 12 11 9 8 8 7 8 8 9 8 8 7
11 12 13 11 9 8 8 9 9 8 9 10 10 11 12 12 13 13 12 11 11 13 12 11 11 12 13 14 12 11 11 12 11 12 13 13 13 15 16 16 16 14 15 17 16 13 11 11 12 12 11 13 13 12 12 13 13 13 12 12 12 12 12 11 8 7 8 8 9 10 11 12 12 11 9 8 7 6 6 6 7 7 7 7 6
11 12 12 12 9 8 9 9 9 8 9 10 10 10 13 14 14 14 14 15 14 14 14 13 13 13 13 13 11 11 12 12 12 11 12 13 11 13 15 16 15 15 14 16 17 14 11 11 12 11 11 12 13 12 12 11 12 12 12 10 9 10 10 8 7 7 7 7 7 9 11 11 10 9 8 6 6 6 6 6 6 7 7 6 5
12 12 10 11 10 9 9 9 9 9 9 10 9 9 12 13 15 16 16 17 17 15 15 15 15 16 15 14 11 11 12 12 11 10 11 12 11 13 17 17 16 15 15 15 16 14 12 11 11 11 11 11 12 12 11 10 10 10 11 9 7 7 7 5 5 6 6 6 7 8 10 9 7 8 7 6 6 5 5 6 6 6 5 5 4
12 12 8 11 11 9 9 9 9 9 9 9 9 9 10 11 13 16 17 17 18 17 16 16 15 16 17 15 12 12 12 13 12 11 11 11 11 13 15 17 16 16 16 14 13 13 12 11 10 10 10 10 10 10 9 9 9 9 10 9 8 8 8 7 5 5 5 5 6 7 9 6 5 7 6 5 5 4 4 5 6 5 4 3 2
13 15 10 10 10 9 9 9 10 9 9 10 9 10 10 10 12 15 16 16 18 18 17 17 16 15 16 15 13 13 13 13 13 13 12 11 11 11 12 14 15 16 16 13 12 11 10 10 9 9 9 9 9 9 9 9 9 9 9 9 8 8 9 9 5 5 5 4 5 7 10 5 3 4 5 5 4 4 4 5 5 3 3 2 1
11 16 13 11 10 10 11 10 11 10 9 10 10 10 10 11 12 14 15 16 17 17 18 18 17 16 16 15 14 16 16 14 14 14 13 11 10 11 11 12 14 14 14 12 11 9 8 8 7 8 8 8 8 8 8 8 7 8 8 8 8 8 7 7 4 5 6 4 5 7 5 1 2 3 5 4 4 4 4 4 4 3 3 3 2
9 15 16 14 10 10 11 10 12 12 10 10 11 11 11 11 13 14 15 16 17 17 18 19 18 18 17 15 16 18 17 15 15 13 12 11 10 10 10 10 11 12 12 10 9 8 7 6 6 6 6 6 7 7 7 7 7 8 7 7 7 7 6 4 3 5 6 4 6 5 1 2 1 4 5 5 4 3 4 4 4 3 3 2 0
7 13 14 12 10 9 11 10 11 12 11 11 12 12 12 12 13 14 15 16 17 17 18 19 18 18 17 18 18 18 17 16 14 13 12 11 10 9 9 9 9 10 9 9 8 7 6 5 5 5 4 5 5 6 8 9 9 9 7 6 5 5 3 1 3 6 6 5 6 3 1 1 2 5 5 5 4 4 4 4 4 3 1 0 2
7 9 9 11 10 9 11 10 10 11 10 11 13 12 12 12 13 15 15 17 16 17 19 18 18 17 19 18 16 15 15 16 14 13 12 10 9 9 8 8 8 8 7 7 7 6 5 5 4 4 3 3 4 5 7 10 10 9 7 5 3 1 1 1 5 6 6 7 5 1 1 2 4 6 6 6 5 3 3 2 1 1 0 1 2
8 8 8 8 8 8 10 11 11 11 8 11 15 14 14 13 13 15 16 18 17 17 18 17 17 18 18 15 13 15 15 15 15 13 12 11 10 9 9 8 8 7 7 6 6 6 5 4 3 3 4 4 3 3 3 5 7 7 7 6 2 1 2 3 5 5 6 8 4 0 1 4 6 7 7 7 5 3 2 1 1 1 1 1 3
8 8 8 8 8 8 9 12 13 12 9 10 15 15 16 15 14 15 16 18 17 15 16 16 16 16 14 11 12 14 14 14 14 13 13 12 12 12 11 10 9 8 7 7 6 5 5 4 4 4 5 4 1 4 5 3 1 4 5 5 3 4 4 4 5 5 6 7 3 1 2 5 6 7 7 5 3 2 1 1 1 1 1 1 2
8 8 9 8 9 9 10 13 13 14 13 11 13 15 15 15 14 15 16 17 16 14 14 14 13 12 11 11 12 14 14 15 15 15 14 13 13 13 12 11 10 9 8 7 5 5 6 5 4 4 3 2 2 3 3 3 2 2 2 4 4 4 4 4 5 5 7 6 2 1 4 6 6 6 6 5 3 2 2 2 1 1 1 2 2
8 8 9 9 10 10 11 12 12 13 15 13 14 15 15 15 15 14 14 15 15 14 13 12 12 11 11 13 13 14 14 14 15 14 13 12 11 11 11 11 9 8 7 7 6 5 5 4 2 1 2 4 2 2 4 3 4 5 5 5 3 3 4 4 5 5 7 5 3 5 6 7 6 5 5 4 3 2 2 1 1 1 2 2 3
9 8 9 11 10 11 11 12 13 12 13 14 14 14 14 14 15 14 13 14 13 13 12 12 12 11 12 14 14 14 13 12 12 12 12 11 8 8 9 9 9 7 6 7 7 5 4 4 2 0 1 3 4 4 3 3 5 7 5 4 3 4 5 5 5 6 7 6 5 7 7 7 7 5 4 3 3 2 1 1 2 2 2 2 3
9 9 10 10 11 11 11 11 12 12 13 14 13 13 13 12 13 13 13 13 13 13 12 12 11 11 12 13 13 13 12 12 12 11 11 10 7 9 10 8 8 7 7 7 5 4 3 3 2 1 1 3 6 6 5 4 5 8 6 5 4 4 5 5 5 6 7 6 6 6 6 6 6 6 5 4 4 4 3 3 3 4 4 4 4
9 10 10 10 11 12 12 11 11 12 13 13 12 12 13 13 13 12 13 13 13 13 13 12 11 11 11 11 11 11 12 11 11 10 10 9 7 9 10 8 8 7 7 6 5 4 3 3 3 2 1 3 5 6 6 5 6 8 7 6 5 5 6 5 5 6 7 6 5 5 6 6 5 5 4 4 4 4 4 4 5 5 5 5 5
10 11 11 11 11 12 12 12 12 12 12 12 12 12 12 13 13 12 12 11 12 13 13 13 12 11 10 9 10 10 11 11 10 9 9 8 6 7 8 7 7 6 6 6 5 4 4 3 2 3 2 3 5 4 4 6 7 8 8 8 7 6 6 5 6 6 6 6 5 5 5 5 4 4 4 4 4 4 5 5 5 5 5 5 5
11 11 12 11 11 12 12 12 12 11 11 11 11 11 12 12 12 12 11 11 12 13 13 12 12 12 10 8 8 9 10 10 9 8 8 7 6 7 7 7 7 6 6 6 5 4 3 3 2 2 2 3 5 4 4 6 7 7 7 8 8 8 7 7 8 6 5 6 6 6 8 6 6 6 6 6 5 5 5 4 4 4 4 4 5
11 12 12 12 12 12 12 12 12 11 11 11 11 11 11 12 12 12 11 12 12 12 12 12 12 11 10 9 8 7 8 9 8 8 8 7 7 7 7 7 7 6 5 6 5 3 3 3 2 2 3 4 4 4 5 7 7 7 8 8 8 8 8 7 7 7 7 7 6 6 8 9 10 9 8 7 6 5 5 4 3 3 4 4 5
11 11 12 12 13 13 13 13 12 11 11 11 12 11 12 12 11 11 11 12 11 11 11 11 12 11 11 9 7 7 8 8 6 7 7 6 7 7 7 6 6 5 4 5 4 3 3 3 3 3 2 4 5 4 5 6 6 7 8 9 8 7 7 5 6 9 8 7 6 4 5 8 9 10 9 7 7 6 5 4 4 4 4 5 5
11 11 12 13 13 14 14 13 12 12 11 12 12 11 12 11 10 11 11 11 10 11 11 11 12 11 10 8 7 7 7 7 5 5 6 6 6 6 7 6 5 5 4 3 3 2 2 3 4 3 2 4 5 5 6 6 5 7 8 9 9 7 6 6 6 8 8 7 7 6 5 4 6 8 7 7 8 6 6 6 6 6 6 7 7
11 11 13 14 13 14 14 13 13 13 12 12 12 12 11 11 11 11 11 10 10 11 11 11 11 11 10 8 7 6 5 6 4 3 4 7 7 6 6 6 5 4 4 2 2 3 2 3 3 3 4 4 3 4 6 6 6 7 7 8 8 6 6 6 6 7 7 8 7 5 5 4 3 5 5 5 7 6 8 9 8 9 9 9 9
11 12 13 14 14 14 13 14 14 13 12 12 12 12 11 11 12 11 11 10 11 12 12 12 11 11 10 8 7 6 5 5 4 3 4 6 7 7 6 5 4 3 4 2 1 3 3 3 3 1 4 5 4 5 5 5 6 6 5 7 8 6 7 6 6 7 7 7 6 4 5 3 2 4 5 5 7 7 8 10 10 10 10 10 10
13 13 13 13 13 13 13 15 14 13 13 12 11 11 11 11 11 11 10 10 11 11 11 11 11 10 9 8 7 6 5 5 4 3 3 4 6 6 5 5 3 2 4 1 1 4 3 4 4 2 2 3 4 6 5 5 7 7 6 7 6 6 7 5 5 7 6 6 5 4 4 3 2 3 4 3 4 6 6 9 10 11 10 9 9
14 14 14 13 14 13 14 15 15 14 13 12 11 10 10 11 11 11 10 10 10 10 10 9 10 9 8 8 7 6 5 4 4 2 2 4 5 6 6 5 3 2 2 1 3 4 3 4 4 4 4 4 1 4 4 5 6 8 8 7 5 5 5 4 6 7 4 4 3 3 6 5 4 2 2 2 3 5 7 8 9 10 9 8 9
14 15 14 14 14 14 14 15 15 14 13 12 11 10 11 10 10 10 9 9 9 8 8 8 9 9 7 7 7 6 5 4 4 2 2 4 5 5 5 3 2 2 1 1 4 4 4 4 4 4 3 4 1 2 3 3 4 7 8 7 5 4 5 5 5 5 3 4 4 3 6 5 5 3 2 3 4 3 4 7 8 7 9 10 9
14 15 14 13 14 13 14 15 14 14 14 12 11 10 11 10 10 10 8 8 8 8 7 7 8 9 9 8 6 5 5 4 4 3 2 3 5 4 3 3 3 2 1 2 4 4 4 5 4 3 2 2 1 2 3 1 2 5 6 7 5 4 5 4 5 4 2 4 4 4 6 7 5 4 3 3 3 3 1 3 5 5 9 9 9
14 16 15 14 14 13 14 14 14 14 14 12 11 11 11 9 10 10 8 7 7 7 7 6 7 9 9 8 6 5 5 5 4 3 2 3 4 4 3 2 3 3 2 2 3 4 4 4 4 2 3 1 1 1 1 1 2 4 4 7 6 4 4 3 4 3 4 6 7 6 8 8 4 2 4 4 2 3 1 4 6 5 7 8 9
15 15 15 15 15 14 14 14 14 14 13 13 11 11 11 9 9 10 8 8 7 7 7 6 6 7 8 7 6 6 5 5 4 3 3 3 3 4 3 2 3 3 2 3 3 3 3 3 2 3 3 3 3 1 2 2 2 3 3 4 5 6 5 4 4 4 6 6 7 7 7 6 1 1 3 4 3 2 4 7 7 6 7 8 9
16 16 16 15 15 15 15 14 14 14 13 12 11 10 9 8 8 8 8 8 7 7 7 6 7 7 8 6 6 6 5 4 4 3 3 4 3 3 3 2 2 3 2 1 2 2 3 3 3 3 4 5 6 3 3 2 3 3 3 1 3 4 3 3 3 6 5 5 7 7 5 8 7 5 5 5 6 5 7 7 4 6 8 8 8
16 17 16 16 16 15 15 14 14 14 13 12 11 9 8 7 7 7 6 7 7 7 7 6 6 7 8 6 5 6 5 5 5 4 4 4 3 3 3 3 2 2 2 1 1 1 2 3 3 4 6 5 5 6 3 1 3 1 4 1 1 2 2 3 4 4 5 6 5 4 4 5 8 10 7 4 4 3 5 7 5 6 9 7 6
16 17 17 17 16 15 15 14 14 14 13 13 11 9 9 7 6 5 5 5 6 6 6 6 6 7 8 7 6 6 5 5 5 4 5 4 3 2 2 3 2 2 2 1 1 1 1 2 2 3 5 3 2 5 5 3 2 4 2 1 2 3 1 4 3 6 7 3 5 6 5 4 3 4 4 3 2 2 3 5 5 6 7 6 6
17 17 18 18 16 16 16 15 14 14 13 13 12 10 10 8 6 6 5 5 6 6 7 7 7 7 7 7 7 7 6 6 5 4 4 4 2 2 2 2 2 2 2 2 3 2 2 1 1 1 3 3 1 3 4 4 2 2 1 1 1 2 2 5 4 4 9 4 4 4 3 3 5 6 8 5 3 1 4 4 4 6 6 4 5
18 17 18 18 17 17 17 15 14 14 13 14 13 11 11 10 8 8 7 7 7 8 8 8 8 7 7 7 7 8 7 6 6 5 4 4 3 3 2 2 2 2 2 2 2 3 3 3 2 0 2 3 2 3 4 5 2 0 2 3 2 2 2 3 2 1 7 6 5 6 4 4 5 7 11 7 3 2 5 6 4 3 3 3 4
19 18 18 18 18 18 18 17 15 14 14 14 13 11 11 10 9 9 8 8 8 7 7 7 7 6 7 8 6 7 7 6 6 6 5 4 4 3 2 2 2 3 2 2 3 4 2 3 1 1 1 1 2 4 4 5 4 2 2 1 1 3 2 3 2 1 4 5 5 7 7 8 7 7 11 5 1 3 7 5 4 3 2 3 2
20 19 18 18 18 19 19 17 15 14 14 15 14 12 11 11 10 9 8 7 7 7 6 6 5 5 6 7 6 7 7 5 6 6 5 5 4 4 3 3 3 3 3 4 4 2 1 2 0 0 0 2 2 3 4 5 6 2 2 4 5 4 4 4 3 2 4 3 4 5 6 10 11 8 8 6 6 5 2 2 3 2 3 3 3
20 20 19 19 18 19 19 18 16 15 14 15 16 13 11 11 10 9 7 7 6 6 7 6 5 5 5 5 4 5 6 6 5 6 6 6 5 5 4 4 4 3 3 4 2 1 0 0 1 1 1 2 3 3 3 5 7 5 3 4 5 6 6 5 5 6 5 4 4 3 5 11 12 7 6 8 8 8 7 4 3 3 4 3 4
19 20 19 19 19 19 20 19 17 16 15 16 16 14 12 11 10 10 8 7 7 6 6 6 5 5 5 5 4 4 5 6 6 6 6 7 6 6 5 5 5 4 3 3 2 1 2 3 2 2 2 3 3 3 4 5 6 6 6 4 4 7 7 6 7 7 6 6 6 5 6 9 9 6 7 8 9 9 8 5 4 5 4 4 5
19 20 20 20 20 20 20 20 18 17 16 16 17 16 14 12 11 11 10 9 7 6 6 5 6 6 6 6 6 5 5 6 7 7 7 7 7 6 6 5 4 3 2 3 4 3 3 4 3 2 2 3 4 4 5 6 5 6 7 6 6 6 6 5 5 7 8 7 6 7 8 9 9 7 6 7 7 7 9 7 6 6 5 4 5
Wind_Direction
132 123 118 120 119 110 108 115 122 116 110 112 110 109 111 114 114 115 119 122 121 118 115 113 113 111 113 104 98 102 104 97 95 94 90 94 96 97 97 93 88 78 73 77 86 94 96 95 95 95 95 94 90 88 87 87 86 88 90 91 91 91 91 90 91 92 92 92 91 86 77 73 74 77 81 83 82 82 83 79 81 88 88 89 90
134 122 118 120 118 109 110 117 122 119 115 116 112 110 109 109 110 113 117 120 119 116 113 111 111 111 108 99 100 108 105 98 94 93 96 98 97 99 97 95 95 88 80 70 67 82 94 95 94 93 94 96 94 91 92 92 89 88 88 90 90 91 92 92 93 93 95 96 97 94 88 81 77 73 73 77 83 91 91 86 89 91 88 89 88
127 119 120 121 116 112 113 112 117 119 119 120 115 113 111 112 114 114 115 120 121 117 113 112 112 109 107 104 109 114 111 106 98 98 100 97 98 100 97 96 95 91 88 83 74 67 76 89 92 90 93 94 93 93 93 93 90 88 88 90 90 93 94 94 96 97 96 96 98 97 94 90 84 78 72 71 77 86 88 87 91 92 91 91 89
124 121 124 120 116 118 115 114 118 119 119 120 117 115 115 118 120 118 118 120 119 116 114 112 111 109 108 111 120 126 120 110 103 105 103 100 102 101 97 97 97 94 89 86 89 81 66 74 90 94 94 94 94 94 93 93 91 89 90 92 93 95 97 97 98 98 96 95 96 95 96 93 87 83 79 76 76 79 79 82 85 87 89 90 89
125 126 128 120 121 122 117 115 117 119 119 119 117 116 117 119 122 121 120 121 117 117 117 114 114 114 115 119 124 123 113 105 106 111 108 109 106 102 102 100 97 96 92 84 84 93 84 70 83 90 91 94 95 93 93 94 93 92 92 94 96 97 98 98 96 95 95 95 94 95 97 96 91 86 84 82 81 79 79 81 80 80 80 83 86
127 127 130 123 124 124 121 119 116 118 121 122 120 118 119 119 122 124 125 123 118 118 117 116 119 117 118 123 120 116 109 105 111 113 109 113 110 106 107 103 98 94 94 91 80 84 91 86 84 86 87 92 93 92 93 92 91 92 93 95 97 100 100 98 94 92 94 93 93 99 99 96 94 89 87 86 85 83 82 82 81 78 73 73 77
125 127 131 127 125 123 121 123 120 119 120 124 124 123 122 118 119 125 129 126 120 119 117 117 120 115 116 122 120 115 108 105 110 113 112 114 112 109 106 102 100 97 95 94 89 82 86 92 91 89 89 90 92 91 91 89 90 92 93 96 99 101 100 95 87 81 83 88 93 98 97 95 95 93 90 88 87 87 87 88 87 83 78 75 75
125 125 127 126 125 124 121 123 121 120 121 124 125 124 119 114 115 120 129 133 128 124 121 122 126 123 122 126 122 113 106 105 110 114 112 113 116 112 106 104 100 99 99 96 97 93 90 95 91 89 91 89 90 89 89 87 88 89 91 97 103 102 93 88 84 78 76 82 92 94 94 97 96 96 95 92 87 86 87 90 93 92 86 79 77
127 125 122 119 120 122 122 121 116 118 124 123 121 122 121 118 119 121 129 135 131 129 124 122 127 130 125 122 117 110 108 109 112 114 111 113 120 115 106 107 103 101 101 99 98 96 96 98 92 86 90 89 88 88 87 86 86 88 92 98 103 101 91 87 83 80 83 85 90 89 91 97 97 97 99 96 90 88 91 92 97 95 90 87 85
126 124 117 109 113 119 117 116 114 117 121 120 118 123 127 125 126 134 138 136 132 133 128 122 126 128 119 115 112 108 109 111 114 116 115 118 121 116 108 107 105 103 100 97 95 94 94 95 94 88 90 90 88 88 87 86 86 88 92 97 99 98 94 89 79 74 86 90 92 89 88 93 94 95 96 93 88 88 92 92 92 91 91 91 89
124 119 114 113 119 121 120 117 115 116 114 115 118 123 128 127 129 138 145 141 131 129 129 125 124 125 119 115 114 112 112 114 117 120 121 121 119 113 110 108 106 106 100 96 92 91 92 95 97 96 96 93 88 85 85 84 82 86 89 95 98 95 88 80 74 75 79 85 92 93 92 92 93 94 92 86 83 83 85 84 81 83 83 81 79
125 117 115 119 129 130 128 121 115 117 116 117 121 127 129 126 125 131 141 139 125 118 125 130 124 127 124 118 117 117 117 117 119 125 124 121 118 113 112 111 109 107 102 99 93 88 89 94 101 106 105 98 94 89 87 84 80 82 84 92 97 92 82 71 74 83 81 81 84 89 91 89 91 94 92 86 83 80 82 80 76 77 75 73 71
125 120 117 116 125 130 124 119 118 121 124 127 131 136 132 126 125 130 135 133 128 124 130 135 127 126 123 119 119 121 122 122 123 124 123 123 120 116 116 116 113 109 102 98 93 89 88 91 100 107 106 101 99 94 88 85 81 79 84 95 98 95 87 76 79 86 82 84 83 87 88 86 90 95 93 87 85 84 83 83 79 78 74 72 68
120 115 116 115 118 123 121 124 128 129 130 133 140 142 135 133 132 136 138 135 138 140 138 136 130 125 117 114 117 122 123 124 124 122 122 126 122 116 116 116 114 109 100 97 95 95 94 92 97 103 103 100 99 96 92 88 83 78 82 92 99 103 99 87 90 93 85 87 90 94 93 88 90 96 97 93 94 94 87 83 77 72 70 67 65
118 114 115 117 119 122 125 132 135 135 137 139 147 145 137 138 138 139 141 138 141 145 141 137 132 124 117 114 117 120 121 123 122 120 121 125 120 116 117 117 116 111 102 95 95 98 100 99 100 105 103 98 97 95 93 90 86 79 77 82 94 100 97 88 90 97 91 89 90 96 99 87 85 100 102 97 94 92 87 84 80 72 69 63 60
122 128 130 122 121 126 130 134 135 137 141 142 146 144 137 136 137 136 135 137 138 141 139 131 125 122 119 117 121 122 120 121 121 121 122 123 119 116 118 118 117 112 104 98 96 98 101 104 105 107 105 100 98 95 94 88 83 79 72 75 96 104 100 97 94 98 94 96 95 99 106 82 70 109 113 111 105 96 87 84 87 82 72 68 62
121 122 125 121 124 135 131 131 131 132 140 140 142 141 137 135 134 129 128 133 133 134 132 123 119 121 118 117 125 126 122 121 120 121 121 120 119 117 116 114 113 107 104 103 101 100 102 106 108 110 109 105 101 96 94 87 80 72 63 69 97 113 111 108 103 97 97 104 98 99 107 79 29 123 138 141 121 100 90 83 91 88 69 61 38
125 121 122 122 132 144 132 131 131 128 134 135 137 135 132 133 131 126 125 128 126 127 126 122 123 123 119 122 130 129 126 126 121 117 114 115 114 114 113 110 109 104 104 106 106 108 107 109 113 112 108 105 102 99 92 83 72 57 59 75 96 110 110 110 104 103 111 115 101 99 107 29 321 149 154 148 121 107 108 96 94 91 72 56 38
131 121 120 122 135 152 141 137 134 131 134 130 133 134 129 128 128 125 124 126 125 126 126 127 130 127 126 132 133 128 126 126 123 119 114 113 113 110 109 109 109 108 110 109 111 116 112 117 121 114 110 104 100 96 84 68 57 54 70 86 98 107 103 109 122 115 114 109 101 96 73 292 203 149 140 132 123 113 110 98 85 83 83 74 50
124 114 116 123 129 145 137 131 131 127 129 128 129 130 128 127 126 125 125 128 128 129 129 129 132 133 135 136 130 126 124 122 122 121 119 118 116 115 114 112 111 110 109 107 112 115 114 120 122 118 108 102 103 93 78 63 60 68 84 101 107 94 68 95 126 110 104 106 103 87 295 205 151 147 140 141 138 114 104 99 87 84 80 279 262
120 113 117 127 125 125 122 121 123 119 126 131 127 126 125 124 125 128 130 130 131 133 132 133 136 139 138 134 129 129 126 122 124 125 125 124 120 121 120 114 111 106 104 107 108 109 115 119 119 112 96 100 109 105 88 72 69 76 83 97 117 81 30 110 107 104 109 115 112 62 249 150 138 141 140 141 136 130 129 114 99 105 70 281 278
125 121 117 122 117 119 121 118 118 117 127 129 125 126 124 125 130 132 133 132 133 135 135 138 139 139 134 130 131 133 130 126 129 129 128 128 126 125 123 117 113 109 106 105 104 108 114 117 112 95 102 111 114 160 148 90 73 73 74 75 83 115 107 96 99 107 111 115 118 242 173 141 135 135 135 131 127 146 143 100 350 23 34 317 305
129 126 120 120 117 120 120 117 120 123 126 122 122 124 125 133 137 136 137 134 135 138 139 141 141 139 134 133 133 129 129 128 128 129 129 130 128 123 120 116 112 109 106 101 103 113 115 105 104 112 119 110 124 217 199 175 112 52 67 84 94 111 104 98 108 110 105 110 121 233 156 140 139 139 140 141 147 174 173 198 246 350 3 320 319
127 123 122 123 123 121 116 118 126 130 132 128 122 124 129 134 136 136 138 135 137 143 143 143 144 142 138 138 134 128 127 126 124 125 127 127 122 114 108 105 106 106 106 107 109 117 117 104 102 123 151 158 207 205 138 145 155 53 65 93 92 102 104 103 105 104 105 111 129 150 131 126 136 146 145 150 166 198 226 229 215 210 261 305 317
126 127 127 127 129 127 126 129 130 130 134 135 127 129 135 135 135 134 132 132 136 142 142 143 144 144 141 135 131 129 127 127 127 126 126 125 118 113 110 109 112 113 120 141 145 137 139 150 155 149 212 195 167 112 96 101 104 82 73 82 81 93 98 98 97 103 107 107 120 121 116 113 124 136 130 130 153 190 227 264 347 317 296 306 303
130 130 129 129 132 130 132 132 130 132 133 132 129 133 137 136 135 134 132 134 137 138 139 139 141 142 138 130 129 130 130 130 130 127 124 119 111 119 126 127 135 143 150 158 156 159 169 170 173 176 207 150 103 91 94 85 99 96 91 96 92 88 91 97 101 104 103 104 114 115 111 110 112 114 108 105 114 117 104 30 26 22 3 344 327
128 130 129 131 133 130 132 131 130 133 128 128 131 132 134 132 132 135 135 136 138 138 136 136 136 136 134 131 132 131 128 127 125 122 118 117 123 132 136 144 147 150 149 147 143 151 152 122 111 115 150 116 111 117 104 85 102 101 96 94 90 93 92 93 102 106 105 104 106 108 106 103 102 100 97 93 86 79 70 54 45 41 35 31 23
130 133 133 133 132 132 134 133 131 129 127 131 132 130 132 132 133 135 135 137 139 135 133 132 129 129 131 131 130 126 125 123 120 117 112 116 130 134 138 143 136 135 138 133 127 125 117 110 115 113 97 102 111 114 112 110 106 103 99 94 92 91 90 95 105 109 111 108 94 91 96 93 93 94 85 77 70 62 58 50 47 44 41 38 33
134 135 134 132 131 134 135 132 132 129 130 132 130 130 131 131 133 132 133 138 135 130 131 131 128 127 126 125 124 123 122 119 116 113 112 119 125 130 131 128 125 130 131 122 117 117 111 110 113 110 100 103 106 107 128 124 109 109 114 113 105 89 87 89 83 83 92 101 93 68 67 70 63 63 56 50 50 48 50 51 49 47 43 36 30
136 137 135 132 133 136 135 133 133 132 132 131 129 130 129 128 129 128 130 132 129 129 133 133 131 128 122 114 113 116 118 115 115 113 116 123 127 129 126 123 125 126 124 117 112 110 111 108 103 111 108 110 114 114 117 110 103 105 109 106 98 89 80 70 74 80 80 87 85 57 43 40 31 28 29 28 28 33 40 46 47 42 33 24 15
136 139 135 135 139 138 135 134 134 135 133 131 129 128 127 127 128 128 128 128 130 134 134 131 128 124 119 110 102 107 115 115 115 117 123 128 128 126 125 125 123 118 116 111 107 100 98 99 94 103 118 117 116 121 117 109 109 111 110 103 97 95 86 83 93 92 84 75 72 55 32 31 31 24 20 19 19 22 25 26 23 14 3 358 349
139 141 138 140 143 138 136 137 135 135 135 132 130 129 127 128 130 128 126 129 134 132 126 123 120 119 119 113 96 93 108 110 104 115 124 123 126 127 123 123 121 119 109 99 105 106 102 110 116 124 143 126 117 129 126 113 116 117 113 107 98 84 84 105 110 96 99 93 83 79 38 28 21 17 20 19 14 8 5 355 341 337 330 331 331
141 142 144 144 143 139 138 138 135 135 137 134 130 131 130 131 131 126 129 134 133 127 122 119 120 122 121 118 106 94 103 108 103 118 126 118 119 123 124 126 122 117 108 103 107 103 111 123 131 138 151 139 132 140 126 113 115 112 112 113 105 99 109 118 111 109 120 109 91 94 82 47 3 356 3 9 7 357 350 337 320 319 316 317 319
141 146 148 145 143 141 140 138 136 137 136 134 132 134 135 133 131 131 136 137 132 128 127 127 129 130 128 123 118 108 100 104 107 102 112 123 123 120 126 128 122 119 115 106 94 96 90 101 120 139 140 136 128 119 119 121 114 103 107 116 121 134 131 113 117 119 108 106 106 108 99 77 349 327 322 336 352 357 358 348 329 320 316 315 315
145 150 149 147 146 143 142 139 139 138 135 135 135 137 138 135 134 137 141 139 138 136 135 138 139 139 137 130 124 117 104 99 102 82 94 123 124 121 126 125 124 120 109 78 52 93 69 78 90 125 137 126 113 101 102 111 108 106 102 105 115 125 120 120 143 132 108 121 128 108 97 82 307 315 317 311 335 352 4 3 350 338 329 325 324
150 152 150 151 147 143 144 141 141 138 135 137 136 137 137 135 135 139 141 141 141 138 139 142 141 140 138 133 128 122 112 101 98 95 106 120 118 120 125 125 126 110 110 89 50 86 70 77 52 12 94 95 112 115 106 107 116 130 127 116 120 125 133 139 133 119 106 122 125 127 144 153 214 310 327 289 311 330 354 13 356 342 337 333 335
150 152 154 154 147 146 148 144 142 139 138 137 137 138 136 135 139 139 139 138 137 137 139 140 137 138 136 132 132 124 117 108 104 104 104 111 112 115 123 130 129 111 115 78 71 74 66 80 53 38 30 347 23 115 118 127 132 137 131 126 129 121 126 107 98 119 128 135 140 170 179 171 171 205 315 270 280 321 344 2 346 334 333 326 330
149 153 157 155 149 150 149 143 143 141 139 140 141 140 138 141 143 140 140 141 141 139 139 138 137 138 134 133 135 127 120 114 111 106 77 95 104 104 114 123 118 113 112 82 81 55 43 63 62 64 22 334 344 117 116 125 132 134 128 126 133 124 119 112 124 148 157 163 173 171 178 187 189 199 278 271 263 290 322 339 340 332 324 322 325
152 155 157 156 150 150 148 144 146 144 141 144 146 145 145 150 148 143 144 144 141 137 137 138 135 133 132 134 136 129 123 116 114 115 73 91 112 113 110 113 125 117 56 92 90 61 45 44 57 66 7 344 354 59 78 77 114 115 121 126 135 132 123 142 165 172 176 173 181 194 206 209 200 200 206 219 266 289 258 316 332 318 313 322 330
154 154 156 158 153 150 149 149 152 148 145 150 153 152 154 156 151 148 149 145 139 138 140 139 136 133 132 135 133 123 120 118 115 117 96 84 105 116 110 107 130 126 64 72 78 64 46 34 54 25 338 321 284 118 106 280 115 107 131 137 146 157 153 169 161 186 227 194 185 205 215 203 178 174 194 203 285 327 273 267 287 300 309 311 318
154 156 160 161 158 155 154 155 156 154 154 158 159 159 159 158 155 156 155 147 141 144 141 140 141 129 126 133 133 125 121 120 119 121 120 110 104 114 117 100 121 133 88 63 57 44 22 11 27 337 336 6 342 54 95 13 80 135 166 161 166 169 177 178 154 200 237 227 200 200 208 194 162 50 184 236 263 238 254 264 283 298 296 295 300
157 161 165 163 162 160 158 159 159 159 162 162 162 162 160 159 158 159 156 146 146 152 147 145 144 128 130 139 133 128 127 125 127 130 134 132 127 123 124 114 115 132 118 89 69 29 2 3 9 343 8 17 336 336 78 38 278 199 138 187 197 165 202 216 199 199 209 258 234 217 210 172 170 197 200 236 213 205 260 262 272 277 269 279 289
161 164 166 164 164 162 161 163 163 163 165 164 167 165 158 156 156 156 154 149 152 154 147 146 145 140 149 152 136 138 143 139 140 144 139 131 131 137 139 131 117 127 138 141 102 35 339 357 25 23 21 18 338 340 17 332 275 116 89 22 187 108 307 297 307 266 229 249 262 286 268 180 172 201 222 260 208 193 286 259 235 255 261 268 277
166 167 167 167 167 165 165 167 166 167 167 166 170 165 156 154 154 154 142 139 146 143 145 154 152 149 158 161 152 157 165 155 151 154 142 129 130 138 135 131 127 140 157 178 203 203 233 347 36 42 16 19 26 353 332 317 18 51 54 39 105 103 311 288 286 284 278 296 23 353 312 325 328 230 248 283 189 154 266 259 245 251 257 262 277
170 171 170 170 169 167 168 169 169 170 170 169 170 164 159 157 154 154 142 138 151 154 163 170 168 167 169 170 163 165 173 160 152 154 138 138 148 129 125 145 147 165 192 204 216 210 187 149 96 24 1 15 24 346 327 319 30 80 131 124 118 135 195 251 239 276 298 348 35 300 267 336 329 304 295 265 182 218 257 262 264 255 252 253 292
172 175 174 171 169 168 168 170 171 172 172 170 171 167 165 166 164 166 164 163 170 174 179 175 174 180 168 162 167 168 170 163 158 158 142 147 158 144 157 181 161 172 207 226 228 225 196 151 136 30 13 32 343 312 311 305 319 65 220 165 206 253 195 258 259 327 302 320 332 292 259 248 260 288 280 235 166 294 250 251 275 287 273 260 304
172 176 176 172 169 167 168 171 172 174 173 171 173 171 170 174 176 177 174 175 179 174 175 171 171 176 151 149 168 167 170 173 162 157 150 154 160 160 176 195 191 186 196 219 234 239 198 118 117 39 32 20 313 289 292 302 304 294 280 263 265 279 286 291 295 39 297 294 301 290 263 259 276 284 269 258 20 249 222 254 311 356 315 265 304
173 174 175 173 170 168 170 172 172 175 175 173 176 176 176 179 185 188 179 179 182 167 167 166 163 167 149 154 170 162 171 183 163 161 169 171 171 176 186 200 208 191 193 212 220 247 48 77 53 5 335 283 282 289 309 311 297 318 15 326 318 310 295 287 284 285 287 281 280 293 303 302 298 282 281 320 331 286 281 348 321 317 304 272 288
174 174 174 173 170 170 171 173 173 176 176 176 179 181 182 182 186 191 184 179 180 171 175 169 158 166 158 158 168 158 169 182 174 175 180 180 182 186 193 202 210 199 205 222 205 173 71 136 250 239 242 275 286 297 316 306 299 329 8 322 320 319 303 300 289 269 276 311 313 310 319 299 283 288 336 337 323 326 339 339 312 324 341 302 275
175 174 174 173 172 171 173 175 176 177 176 176 181 186 185 186 189 190 186 183 179 174 178 173 166 174 175 172 180 179 178 182 186 187 188 190 191 193 198 201 208 207 208 234 225 197 221 219 223 242 271 289 294 293 291 290 300 312 314 306 306 302 302 315 316 309 311 315 310 304 298 288 288 331 353 320 319 334 323 333 355 321 319 320 303
176 175 175 174 173 173 175 177 178 178 178 177 182 187 188 188 191 189 189 187 184 180 176 180 183 184 192 189 186 194 194 190 189 187 193 197 193 196 205 205 205 206 201 224 227 221 230 221 204 222 252 269 284 294 293 290 289 288 290 283 272 281 293 300 322 325 311 303 309 310 302 304 313 329 326 299 315 337 320 348 12 294 290 347 333